Regional Weather Roundup
Issued by NWS

Home | Current Version | Previous Version | Text Only | Print | Product List | Glossary Off
Versions: 1 2 3 4 5 6 7 8 9 10 11 12 13 14 15 16 17 18 19 20 21 22 23 24 25 26 27

000
ASUS45 KCYS 240110
RWRWY

WYOMING REGIONAL WEATHER ROUNDUP
NATIONAL WEATHER SERVICE CHEYENNE WY
700 PM MDT WED AUG 23 2017

NOTE:  "FAIR" INDICATES FEW OR NO CLOUDS BELOW 12,000 FEET
WITH NO SIGNIFICANT WEATHER AND/OR OBSTRUCTIONS TO VISIBILITY.

WYZ001-240200-
YELLOWSTONE NATIONAL PARK

CITY           SKY/WX    TMP DP  RH WIND       PRES   REMARKS
LK YELLOWSTONE   N/A     60  58  92 CALM      30.34S
W YELLOWSTONE  NOT AVBL

$$
WYZ002>013-054>058-071-098>099-240200-
NORTHERN WYOMING

CITY           SKY/WX    TMP DP  RH WIND       PRES   REMARKS
JACKSON        CLOUDY    68  44  42 N6        30.23F
CODY           FAIR      80  39  23 W10       30.06S
GREYBULL       FAIR      91  26   9 NW5       29.92F
WORLAND        FAIR      86  43  22 N3        29.94F
SHERIDAN       FAIR      90  43  19 NW3       29.94F
BUFFALO        FAIR      86  32  14 NW5       30.03F
GILLETTE       FAIR      86  33  15 NE9       29.97F
HULETT         FAIR      81  39  22 E9        30.01F
NEWCASTLE      FAIR      88  32  13 E9        29.98S

$$
WYZ014>020-022>026-101>103-240200-
CENTRAL WYOMING

CITY           SKY/WX    TMP DP  RH WIND       PRES   REMARKS
BIG PINEY      CLOUDY    69  41  36 N18       30.25S
PINEDALE       FAIR      70  37  30 NW3       30.26S
DUBOIS         FAIR      63  37  39 W14G20    30.25S
LANDER           N/A    N/A N/A N/A MISG      30.08S
RIVERTON       FAIR      83  32  16 SW7       30.06F
CASPER         FAIR      84  29  13 W7        30.04F
DOUGLAS        FAIR      80  39  23 S7        30.02F

$$
WYZ021-027>030-104>119-240200-
SOUTHERN WYOMING

CITY           SKY/WX    TMP DP  RH WIND       PRES   REMARKS
EVANSTON       FAIR      69  45  41 S9        30.24F
KEMMERER         N/A     68  37  32 CALM      30.26F
FORT BRIDGER   FAIR      68  45  44 S9        30.27F
ROCK SPRINGS   FAIR      68  38  33 SW12      30.23S
DIXON          CLOUDY    68  44  42 CALM      30.27R
RAWLINS        FAIR      76  35  22 SW8       30.21S
SARATOGA       FAIR      59  50  72 SE14G22   30.29R
LARAMIE        FAIR      61  47  59 SW22      30.28S
CHEYENNE       CLOUDY    73  44  35 NW3       30.18S
TORRINGTON     LGT RAIN  72  53  51 W12       30.01S
PINE BLUFFS    MOCLDY    70  48  46 N7        30.11F

$$




USA.gov is the U.S. government's official web portal to all federal, state and local government web resources and services.